WIA59M TNCM-TFFJ

Flight info

Callsign WIA59M
Flight time 0h 9m
Altitude 5000
Route PJM
Aircraft DHC6/L-SDFGR/C

Departure

Time 2026-05-05 10:20
Airport Princess Juliana International Airport (TNCM)

Arrival

Time 2026-05-05 10:30
Airport St. Jean Airport (TFFJ)
Time Latitude Longitude Altitude Speed Heading
2026-05-05 10:05 18.04177 -63.11239 16 ft 0 kts 171°
2026-05-05 10:18 18.04164 -63.11237 16 ft 4 kts 171°
2026-05-05 10:18 18.04137 -63.11253 16 ft 7 kts 258°
2026-05-05 10:18 18.04125 -63.11285 16 ft 8 kts 216°
2026-05-05 10:18 18.04113 -63.11290 15 ft 0 kts 190°
2026-05-05 10:19 18.04106 -63.11290 15 ft 3 kts 174°
2026-05-05 10:19 18.04071 -63.11285 15 ft 8 kts 170°
2026-05-05 10:19 18.04045 -63.11244 15 ft 9 kts 83°
2026-05-05 10:20 18.04078 -63.11004 17 ft 65 kts 82°
2026-05-05 10:20 18.04174 -63.10391 243 ft 91 kts 78°
2026-05-05 10:20 18.04006 -63.09814 498 ft 93 kts 155°
2026-05-05 10:20 18.03433 -63.09853 851 ft 81 kts 221°
2026-05-05 10:21 18.02905 -63.10145 1030 ft 93 kts 188°
2026-05-05 10:21 18.02290 -63.09970 1301 ft 95 kts 142°
2026-05-05 10:21 18.02116 -63.09343 1535 ft 98 kts 65°
2026-05-05 10:21 18.02253 -63.08681 1790 ft 99 kts 114°
2026-05-05 10:22 18.01915 -63.08076 2083 ft 95 kts 113°
2026-05-05 10:22 18.01640 -63.07440 2353 ft 96 kts 118°
2026-05-05 10:22 18.01341 -63.06809 2628 ft 96 kts 117°
2026-05-05 10:22 18.01036 -63.06182 2898 ft 97 kts 117°
2026-05-05 10:23 18.00731 -63.05550 3166 ft 97 kts 118°
2026-05-05 10:23 18.00422 -63.04917 3430 ft 98 kts 117°
2026-05-05 10:23 18.00112 -63.04290 3688 ft 98 kts 118°
2026-05-05 10:23 17.99800 -63.03651 3946 ft 98 kts 118°
2026-05-05 10:24 17.99484 -63.03012 4203 ft 99 kts 117°
2026-05-05 10:24 17.99159 -63.02350 4519 ft 104 kts 118°
2026-05-05 10:24 17.98826 -63.01671 4898 ft 104 kts 117°
2026-05-05 10:24 17.98488 -63.00987 5233 ft 109 kts 118°
2026-05-05 10:25 17.98136 -63.00277 5608 ft 108 kts 118°
2026-05-05 10:25 17.97786 -62.99562 5912 ft 116 kts 117°
2026-05-05 10:25 17.97370 -62.98720 6006 ft 136 kts 118°
2026-05-05 10:25 17.96946 -62.97862 6407 ft 129 kts 117°
2026-05-05 10:26 17.96538 -62.97037 6622 ft 128 kts 118°
2026-05-05 10:26 17.96111 -62.96171 6476 ft 140 kts 117°
2026-05-05 10:26 17.95619 -62.95126 5680 ft 159 kts 115°
2026-05-05 10:26 17.94794 -62.94408 4971 ft 163 kts 156°
2026-05-05 10:27 17.93798 -62.93976 4884 ft 131 kts 160°
2026-05-05 10:27 17.92954 -62.93659 4385 ft 140 kts 162°
2026-05-05 10:27 17.91949 -62.93318 3672 ft 157 kts 163°
2026-05-05 10:27 17.91050 -62.92765 3050 ft 156 kts 129°
2026-05-05 10:28 17.90530 -62.91784 2452 ft 156 kts 112°
2026-05-05 10:28 17.90174 -62.90688 1862 ft 155 kts 105°
2026-05-05 10:28 17.90006 -62.89600 1341 ft 150 kts 88°
2026-05-05 10:28 17.90146 -62.88542 955 ft 140 kts 80°
2026-05-05 10:29 17.90318 -62.87592 697 ft 119 kts 80°
2026-05-05 10:29 17.90385 -62.86899 523 ft 82 kts 90°
2026-05-05 10:29 17.90401 -62.86247 445 ft 98 kts 86°
2026-05-05 10:29 17.90422 -62.85499 337 ft 106 kts 90°
2026-05-05 10:30 17.90433 -62.84729 114 ft 100 kts 88°
2026-05-05 10:30 17.90439 -62.84405 33 ft 0 kts 85°
2026-05-05 10:32 17.90378 -62.84475 40 ft 0 kts 87°